Location: Observatory
(52.1446°N, 0.4624°W)
Time: 16:21:40
(UTC+01:00)

ISS - Pass Details

Date: 26 May 2020
Orbit: 417 x 420 km, 51.6° (Epoch: 26 May)

Event Time Altitude Azimuth Distance (km) Brightness Sun altitude
Rises 22:06:05 0° 279° (W) 2,367 0.9 -7.4°
Reaches altitude 10° 22:08:12 10° 276° (W) 1,502 -0.2 -7.6°
Maximum altitude 22:11:32 64° 195° (SSW) 470 -3.7 -8.0°
Drops below altitude 10° 22:14:53 10° 114° (ESE) 1,500 -1.5 -8.3°
Enters shadow 22:15:06 - 113° (ESE) 1,589 -1.4 -8.3°
